Content
SEND FEEDBACK

Daily
Averages
Monthly
Summary
United States of America

AGAWAM, MASSACHUSETTS


Home > North America > United States > Massachusetts
Elevation: 127 feet     Latitude: 42 06N     Longitude: 072 35W

WEATHER
 
SELECT A DAY
Number of Records: 224,819;   Date Range: 11/7/95 - 9/16/14
 
SHARE

PRINT THIS DATA

[ ← Previous Day ]
WEATHER ALMANAC - FEBRUARY 13, 2013
[ Next Day → ]
[ °C ]   °F
Weather ElementAverageHighLow
Temperature30.5 °F37 °F (1:54 pm)24.1 °F (9:54 pm)
Dewpoint17.6 °F19.9 °F (12:54 am)15.1 °F (1:54 pm)
Humidity59.7 %75 % (9:54 pm)41 % (1:54 pm)
Barometer29.81 in29.86 in (4:54 am)29.76 in (5:54 pm)
Wind Speed1.5 mph8.1 mph (12:54 am)
Weather ElementAverage
Visibility9.9 mi
Wind DirectionNE (48.3 °)

Weather ElementTotal
Precipitation---
Heating Degree Days34.5 (Base 65)
Averaged from 23 records on February 13, 2013
WEATHER CONDITIONS BREAKOUT
WIND DIRECTION BREAKOUT
WEATHER BY HOUR - FEBRUARY 13, 2013
[ °C ]   °F
Local TimeTemperatureDewpointHumidityBarometerVisibilityWind DirectionWind SpeedGust SpeedPrecipitationEventsConditions
12:54 AM33.1 °F19.9 °F59 %29.84 in10.0 miSW (230°)8.1 mphOvercast
1:54 AM30.9 °F19.9 °F64 %29.84 in10.0 miCalmOvercast
3:54 AM32.0 °F18.0 °F56 %29.85 in10.0 miCalmOvercast
4:54 AM30.0 °F18.0 °F61 %29.86 in10.0 miCalmMostly Cloudy
5:54 AM25.0 °F17.1 °F72 %29.85 in10.0 miCalmMostly Cloudy
6:54 AM26.1 °F17.1 °F69 %29.85 in10.0 miCalmScattered Clouds
7:54 AM27.0 °F18.0 °F69 %29.86 in10.0 miCalmOvercast
8:54 AM32.0 °F19.0 °F59 %29.86 in10.0 miCalmOvercast
9:54 AM33.1 °F19.0 °F56 %29.85 in10.0 miCalmMostly Cloudy
10:54 AM34.0 °F18.0 °F52 %29.84 in10.0 miWNW (300°)8.1 mphOvercast
11:54 AM35.1 °F17.1 °F48 %29.83 in10.0 miVariable3.5 mphOvercast
12:54 PM36.0 °F16.0 °F44 %29.81 in10.0 miCalmOvercast
1:54 PM37.0 °F15.1 °F41 %29.80 in10.0 miVariable3.5 mphOvercast
2:54 PM36.0 °F16.0 °F44 %29.78 in10.0 miCalmOvercast
3:54 PM36.0 °F17.1 °F46 %29.77 in10.0 miCalmOvercast
4:54 PM35.1 °F17.1 °F48 %29.78 in10.0 miWSW (240°)6.9 mphOvercast
5:54 PM30.9 °F17.1 °F57 %29.76 in10.0 miCalmScattered Clouds
6:54 PM27.0 °F17.1 °F66 %29.77 in10.0 miCalmClear
7:54 PM26.1 °F17.1 °F69 %29.76 in10.0 miNNW (340°)3.5 mphClear
8:54 PM26.1 °F17.1 °F69 %29.78 in10.0 miCalmClear
9:54 PM24.1 °F17.1 °F75 %29.77 in10.0 miCalmClear
10:54 PM25.0 °F18.0 °F75 %29.76 in10.0 miCalmScattered Clouds
11:54 PM25.0 °F18.0 °F75 %29.76 in8.0 miCalmOvercast
Hourly data recorded from KVSF, located miles away from Agawam, Massachusetts







STORIES FROM OUR PARTNERS